Temp
47 47 47 46 46 47 48 49 48 48 48 49 50 50 50 50 50 50 50 50 50 50 51 51 52 51 52 52 51 51 51 51 51 51 50 51 51 51 52 51 51 51 51 51 50 50 50 50 50 50 50 50 51 51 52 53 53 53 53 53 53 54 54 53 53 53 53 53 54
48 47 45 44 44 45 47 47 47 48 48 49 50 50 50 50 50 50 50 50 50 51 51 51 51 51 51 51 51 51 51 51 51 51 51 51 51 51 51 51 50 50 50 50 50 50 50 50 49 49 50 50 50 51 51 52 52 53 53 53 53 53 53 53 53 53 53 53 53
47 46 46 46 46 47 48 48 49 50 50 49 49 49 49 49 49 50 50 50 51 50 50 50 49 50 50 51 51 51 50 50 50 51 51 51 51 52 51 51 51 50 49 49 49 49 49 49 49 48 49 50 50 50 51 52 52 52 52 52 53 53 53 53 53 53 53 53 53
46 47 47 48 48 49 49 49 50 50 50 49 49 48 48 48 48 49 49 50 49 49 49 49 48 48 48 49 50 50 50 49 50 50 50 50 51 51 51 50 50 50 50 49 49 48 49 49 48 48 48 49 49 49 50 51 51 51 51 52 52 52 52 53 53 53 53 53 53
47 47 47 48 48 48 48 48 48 49 49 48 48 48 48 48 48 48 48 48 48 49 50 50 47 47 47 48 49 49 49 49 48 48 49 49 50 50 50 50 50 50 49 49 49 48 48 49 49 49 48 48 48 49 49 50 50 50 51 51 52 52 52 52 53 53 53 53 52
48 48 47 47 47 47 47 47 47 47 47 47 47 48 48 49 49 49 49 49 49 50 49 47 46 45 46 48 49 49 49 49 48 48 48 48 48 49 49 49 49 48 48 48 48 47 47 47 48 48 49 49 48 48 49 50 49 49 49 50 51 51 51 51 52 52 52 52 52
48 48 48 47 47 47 47 47 46 46 46 46 47 48 48 49 48 48 48 49 49 49 48 46 46 47 48 48 49 49 49 49 49 49 48 48 48 48 47 47 47 47 47 47 47 47 47 47 47 48 48 48 48 49 49 49 49 48 48 49 50 50 51 50 51 51 51 51 51
48 48 48 48 48 47 47 47 47 47 47 47 47 48 48 48 47 47 48 48 48 48 47 47 48 48 48 48 47 47 47 47 47 48 48 48 48 47 47 46 46 46 46 46 46 46 47 47 47 47 47 47 48 48 48 48 48 47 47 48 49 49 49 49 49 50 50 50 50
48 48 48 48 48 47 47 47 47 47 47 47 48 48 47 47 47 47 47 48 48 48 48 48 48 48 48 47 46 46 46 45 46 46 47 47 46 46 46 46 46 46 46 46 46 46 46 46 46 47 47 47 47 47 47 47 46 46 46 47 48 48 49 48 48 49 49 49 48
49 48 48 48 48 47 47 46 46 46 46 46 47 47 47 45 46 47 47 48 47 48 48 48 48 48 47 47 46 46 46 46 45 45 45 45 45 45 45 45 46 46 46 46 47 47 46 46 45 45 45 46 46 46 45 46 45 45 45 46 46 47 47 48 48 49 48 48 47
47 47 47 47 47 46 46 46 46 46 46 47 47 47 47 46 47 47 48 47 47 47 48 47 47 47 46 46 45 45 45 45 45 45 45 45 45 45 45 45 45 46 46 46 47 47 46 46 45 44 44 45 45 45 44 44 44 44 44 45 45 45 46 47 47 47 47 47 47
46 46 46 46 46 45 45 45 46 47 47 47 48 48 48 48 48 48 48 47 47 47 47 47 47 46 45 45 45 45 45 45 45 45 45 45 45 45 45 45 45 45 45 45 46 46 46 45 45 44 44 45 45 44 44 44 44 43 43 44 44 44 44 44 45 46 46 47 46
45 45 45 45 45 45 45 46 47 47 48 48 48 48 48 48 48 48 48 48 47 47 47 47 47 46 46 45 45 45 45 45 45 45 45 45 45 45 45 45 45 45 45 45 45 45 45 45 44 44 44 44 45 45 44 44 43 43 43 43 43 43 43 44 44 45 45 46 45
45 45 45 45 45 45 46 46 47 47 48 48 48 48 48 48 48 48 48 47 47 47 46 46 46 46 46 45 45 45 45 45 44 44 44 44 44 44 44 44 44 44 44 44 44 44 44 44 44 44 44 44 44 44 45 44 44 44 43 43 43 43 43 43 44 44 44 44 44
44 44 45 45 45 46 46 46 47 47 48 48 48 48 48 48 48 47 47 47 46 46 46 45 45 45 45 44 44 44 44 44 44 43 43 43 43 43 43 43 43 43 43 43 43 43 43 44 44 44 44 43 44 44 44 44 44 44 44 43 43 43 43 43 44 44 44 43 44
44 45 45 45 45 46 46 46 47 47 47 47 47 47 47 47 47 46 46 45 45 45 45 44 44 44 44 43 43 43 43 43 42 42 42 42 42 42 42 42 43 43 43 43 42 42 42 43 43 43 43 43 43 43 44 44 44 44 44 44 44 44 44 44 44 44 44 44 44
44 45 45 45 45 45 46 46 46 46 46 46 46 46 46 46 46 45 44 44 44 44 43 43 43 43 43 42 42 42 42 41 41 41 41 41 41 42 42 42 42 42 42 42 41 42 42 42 42 42 42 42 42 42 43 43 43 43 43 43 43 44 44 44 44 44 44 44 44
45 45 45 45 45 45 45 45 46 46 46 46 46 45 45 45 44 44 43 43 43 42 42 42 42 41 41 41 41 41 41 40 40 40 40 41 41 41 41 41 41 41 41 41 41 41 41 41 41 41 41 41 41 41 42 42 42 42 42 43 43 43 44 44 44 44 44 44 44
45 45 45 45 45 45 45 45 45 45 45 45 45 44 44 44 43 43 42 42 42 42 41 41 41 41 40 40 40 40 40 40 39 39 40 40 40 40 40 40 40 40 40 40 40 40 40 40 40 40 40 40 40 40 41 41 41 41 42 42 42 43 43 44 44 44 45 45 45
45 45 45 45 45 45 45 45 45 45 45 44 44 43 43 43 42 42 41 41 41 41 40 40 40 40 39 39 39 39 39 39 39 39 39 39 39 39 39 39 39 39 39 39 39 39 39 39 39 39 39 39 39 39 40 40 40 40 41 41 41 42 43 43 44 44 45 45 45
45 45 45 45 45 45 45 45 44 44 44 44 43 43 42 42 41 41 41 41 41 40 40 39 39 39 38 38 38 38 38 39 38 38 38 38 38 38 38 38 38 38 39 39 39 39 39 39 39 38 38 38 38 38 39 39 39 39 40 40 41 41 42 43 43 44 44 44 45
45 45 45 45 45 45 44 44 44 44 43 43 43 43 42 42 41 41 40 40 40 39 39 38 38 38 38 38 38 37 37 38 38 38 37 37 37 38 38 38 38 37 37 37 37 37 37 37 37 37 37 37 37 37 37 37 37 38 38 39 39 40 41 42 42 43 43 44 44
45 45 45 45 45 44 44 44 43 43 43 42 42 42 42 41 41 40 40 39 39 38 38 37 37 37 37 37 37 36 36 36 36 36 36 36 37 37 37 37 37 36 36 36 36 36 36 35 36 36 36 36 36 36 36 36 36 36 36 37 38 38 39 40 41 41 42 43 43
44 44 44 44 44 44 43 43 43 42 42 42 42 41 41 40 40 39 38 38 37 37 36 36 36 36 36 36 36 35 35 35 35 35 35 35 36 36 36 36 36 35 35 35 35 35 35 35 35 35 35 35 35 35 35 35 35 35 35 36 36 37 37 38 39 39 40 41 42
43 43 43 43 43 43 43 42 42 42 42 41 41 41 40 40 39 38 37 36 36 36 36 35 35 35 35 35 35 35 35 35 34 34 34 35 35 35 35 35 35 34 34 34 34 35 34 34 34 34 34 35 35 35 35 35 35 35 35 35 35 36 36 37 38 38 39 40 40
42 42 42 42 42 42 42 42 41 41 41 41 41 40 40 39 38 37 36 36 35 35 35 35 35 35 34 35 35 35 35 35 35 34 34 33 33 33 33 33 34 34 33 34 34 34 34 34 34 34 34 34 34 34 34 34 34 34 34 34 34 35 35 35 36 37 38 39 39
41 41 41 41 41 41 41 41 41 41 40 40 39 39 39 38 38 37 36 35 35 35 35 34 34 34 34 35 35 34 34 35 34 34 33 32 32 32 32 33 33 32 32 33 33 34 34 34 34 34 33 33 34 34 34 34 34 34 34 34 34 34 34 34 35 35 36 37 38
40 40 40 40 40 40 40 40 40 40 39 39 39 38 38 37 36 36 35 35 35 34 34 34 34 35 35 35 35 34 34 34 34 33 32 32 32 32 32 32 32 32 33 34 34 34 34 34 34 34 34 33 33 33 33 34 34 34 34 33 34 34 34 34 34 34 35 36 37
40 39 39 39 39 39 39 39 39 39 38 38 37 37 36 36 35 35 35 35 34 34 34 35 35 35 35 35 34 34 34 33 32 32 32 31 31 32 32 32 33 33 33 34 34 34 34 34 34 34 34 33 33 33 33 34 34 34 34 34 34 34 34 34 34 34 34 35 35
39 39 39 38 38 38 38 38 38 38 37 37 36 35 35 35 34 34 34 34 34 34 35 35 35 34 34 34 34 33 33 33 32 32 32 31 31 31 32 32 33 33 33 33 34 34 34 34 34 33 33 33 33 33 34 34 34 34 34 34 34 34 34 34 34 34 34 34 35
38 38 38 37 37 37 37 37 37 36 36 35 35 34 34 34 34 34 34 34 34 35 35 35 34 34 34 34 34 34 33 33 32 32 31 31 31 31 32 33 33 33 33 33 33 34 34 34 33 33 33 33 33 33 33 34 34 34 33 33 34 34 34 34 34 34 34 34 34
37 37 37 36 36 36 36 36 36 35 35 34 34 34 33 33 34 34 35 35 34 34 34 34 34 33 34 34 34 33 33 32 32 32 31 31 31 31 32 32 32 33 33 33 33 33 33 33 33 33 33 33 32 32 33 33 33 34 34 34 34 34 34 35 34 34 34 34 34
36 36 36 35 35 35 35 35 34 34 34 33 33 33 33 33 34 34 34 34 34 34 34 34 33 33 33 33 33 32 32 32 31 31 31 31 31 31 31 31 32 33 33 33 33 33 33 33 33 33 33 33 32 32 32 32 33 33 33 34 34 34 35 35 35 35 35 35 34
34 34 34 34 34 34 34 33 33 32 32 32 32 32 33 33 33 33 33 33 34 34 34 34 34 33 33 33 32 31 31 30 31 31 31 31 31 31 31 31 31 32 33 33 33 33 33 33 33 33 33 33 32 32 33 33 33 33 33 33 34 34 35 35 35 35 35 35 35
34 34 33 33 33 33 32 32 32 31 31 31 31 32 32 32 32 32 33 33 33 33 34 34 34 34 33 33 32 31 30 30 30 30 30 31 31 30 30 30 31 32 33 33 33 33 33 33 33 33 33 32 32 32 32 33 32 33 33 33 33 34 34 35 35 35 35 35 35
34 32 31 31 31 32 32 32 31 31 31 30 30 30 31 32 32 33 33 33 33 33 33 33 33 33 32 32 31 31 30 30 30 30 30 30 30 30 30 30 31 32 32 32 32 33 33 33 33 33 33 32 32 32 32 32 32 32 33 33 33 33 34 34 34 34 35 35 35
33 32 30 30 31 31 31 31 31 30 30 29 30 30 30 31 32 33 33 33 33 32 32 32 32 32 31 31 30 31 31 31 30 30 30 30 29 29 29 30 31 31 32 32 32 33 33 33 33 33 33 32 32 32 32 32 32 32 32 32 33 33 33 34 34 34 34 35 35
33 32 31 30 31 31 31 31 30 30 29 29 30 31 31 32 32 32 33 33 32 32 31 31 31 31 31 31 30 31 31 31 31 30 29 29 29 29 29 29 30 30 31 32 32 33 33 33 33 33 33 32 32 32 32 32 32 32 32 32 33 33 33 33 33 34 34 34 34
33 32 32 31 30 30 30 30 30 29 29 30 30 31 31 32 32 32 33 32 32 31 30 30 30 30 31 30 30 30 31 31 31 30 30 29 29 29 29 29 30 30 31 32 33 33 33 34 34 34 34 33 33 33 32 32 32 32 32 32 32 33 33 33 33 33 33 34 34
32 32 31 31 30 30 30 30 30 30 30 30 30 31 31 31 32 32 32 32 32 31 30 30 30 30 31 30 30 30 30 30 31 30 30 29 30 30 30 29 30 30 31 32 33 33 34 34 34 34 34 33 33 33 33 33 32 32 32 32 32 32 33 33 33 33 33 33 34
32 31 31 31 30 30 30 30 30 30 30 30 30 31 31 32 32 32 32 31 31 31 30 30 30 30 31 30 30 29 29 29 30 30 30 30 30 30 30 30 30 31 32 33 33 34 34 35 35 35 35 34 34 34 34 33 33 32 32 32 32 32 32 33 33 33 33 33 33
MSLP
1018.32 1018.36 1018.40 1018.44 1018.44 1018.44 1018.44 1018.48 1018.48 1018.52 1018.52 1018.44 1018.36 1018.32 1018.28 1018.28 1018.20 1018.20 1018.16 1018.12 1018.12 1018.04 1018.00 1017.92 1017.88 1017.84 1017.76 1017.72 1017.68 1017.64 1017.56 1017.48 1017.40 1017.28 1017.20 1017.12 1017.04 1016.92 1016.80 1016.68 1016.60 1016.56 1016.44 1016.32 1016.24 1016.12 1016.04 1016.00 1015.88 1015.76 1015.64 1015.56 1015.40 1015.28 1015.12 1014.96 1014.88 1014.76 1014.68 1014.60 1014.52 1014.48 1014.40 1014.40 1014.32 1014.28 1014.28 1014.28 1014.28
1018.28 1018.36 1018.40 1018.48 1018.56 1018.56 1018.52 1018.44 1018.44 1018.44 1018.44 1018.40 1018.36 1018.32 1018.28 1018.28 1018.20 1018.12 1018.12 1018.08 1018.00 1018.00 1017.96 1017.92 1017.88 1017.84 1017.72 1017.68 1017.64 1017.56 1017.48 1017.40 1017.32 1017.20 1017.08 1016.96 1016.88 1016.80 1016.68 1016.56 1016.48 1016.40 1016.28 1016.20 1016.12 1016.00 1015.92 1015.80 1015.72 1015.64 1015.48 1015.32 1015.24 1015.12 1015.00 1014.92 1014.84 1014.68 1014.56 1014.40 1014.40 1014.32 1014.28 1014.20 1014.12 1014.12 1014.08 1014.08 1014.08
1018.28 1018.32 1018.40 1018.40 1018.44 1018.44 1018.40 1018.36 1018.32 1018.28 1018.28 1018.32 1018.36 1018.32 1018.28 1018.28 1018.20 1018.12 1018.08 1018.00 1018.00 1018.00 1017.96 1017.92 1017.84 1017.80 1017.68 1017.64 1017.56 1017.52 1017.40 1017.28 1017.16 1017.08 1016.96 1016.84 1016.68 1016.56 1016.52 1016.40 1016.32 1016.28 1016.20 1016.12 1016.00 1015.88 1015.80 1015.68 1015.60 1015.52 1015.36 1015.16 1015.04 1014.92 1014.80 1014.68 1014.68 1014.60 1014.48 1014.32 1014.24 1014.16 1014.08 1013.96 1013.92 1013.88 1013.88 1013.84 1013.84
1018.28 1018.28 1018.28 1018.36 1018.40 1018.36 1018.36 1018.32 1018.24 1018.20 1018.24 1018.28 1018.28 1018.28 1018.28 1018.28 1018.24 1018.16 1018.12 1018.04 1018.00 1018.00 1017.92 1017.84 1017.80 1017.76 1017.68 1017.56 1017.44 1017.36 1017.28 1017.12 1017.04 1016.92 1016.80 1016.64 1016.52 1016.40 1016.28 1016.24 1016.12 1016.00 1015.96 1015.88 1015.80 1015.68 1015.60 1015.56 1015.48 1015.36 1015.20 1015.04 1014.92 1014.80 1014.68 1014.56 1014.48 1014.40 1014.32 1014.20 1014.12 1014.00 1013.92 1013.80 1013.72 1013.68 1013.64 1013.56 1013.56
1018.16 1018.28 1018.32 1018.36 1018.36 1018.36 1018.36 1018.36 1018.28 1018.28 1018.28 1018.28 1018.28 1018.24 1018.20 1018.20 1018.20 1018.16 1018.12 1018.08 1018.00 1017.88 1017.80 1017.72 1017.72 1017.68 1017.60 1017.48 1017.32 1017.20 1017.12 1016.96 1016.92 1016.80 1016.60 1016.44 1016.32 1016.24 1016.12 1016.04 1015.96 1015.84 1015.76 1015.68 1015.60 1015.52 1015.44 1015.40 1015.28 1015.16 1015.04 1014.92 1014.76 1014.64 1014.52 1014.40 1014.36 1014.24 1014.12 1014.04 1013.96 1013.84 1013.72 1013.64 1013.56 1013.48 1013.40 1013.36 1013.32
1018.16 1018.28 1018.32 1018.40 1018.40 1018.40 1018.36 1018.36 1018.32 1018.28 1018.28 1018.28 1018.24 1018.20 1018.12 1018.12 1018.12 1018.08 1018.00 1017.96 1017.84 1017.72 1017.68 1017.68 1017.64 1017.56 1017.40 1017.28 1017.12 1016.96 1016.84 1016.76 1016.68 1016.56 1016.40 1016.28 1016.16 1016.04 1015.96 1015.84 1015.76 1015.68 1015.60 1015.52 1015.40 1015.32 1015.28 1015.28 1015.12 1014.92 1014.76 1014.68 1014.52 1014.40 1014.32 1014.28 1014.16 1014.08 1014.00 1013.84 1013.68 1013.60 1013.52 1013.40 1013.32 1013.28 1013.20 1013.12 1013.08
1018.24 1018.28 1018.28 1018.36 1018.40 1018.36 1018.32 1018.32 1018.32 1018.32 1018.32 1018.32 1018.28 1018.16 1018.12 1018.08 1018.04 1018.00 1017.92 1017.84 1017.72 1017.64 1017.56 1017.52 1017.40 1017.28 1017.12 1016.96 1016.84 1016.68 1016.56 1016.44 1016.36 1016.28 1016.16 1016.04 1015.92 1015.84 1015.72 1015.64 1015.56 1015.48 1015.40 1015.28 1015.24 1015.12 1015.04 1015.04 1014.88 1014.68 1014.56 1014.40 1014.28 1014.12 1014.04 1014.00 1013.92 1013.84 1013.72 1013.56 1013.44 1013.36 1013.28 1013.16 1013.12 1013.08 1012.96 1012.88 1012.84
1018.28 1018.28 1018.28 1018.32 1018.32 1018.32 1018.32 1018.32 1018.32 1018.32 1018.28 1018.28 1018.20 1018.12 1018.08 1018.04 1018.00 1017.92 1017.80 1017.68 1017.56 1017.48 1017.36 1017.28 1017.12 1016.96 1016.88 1016.76 1016.64 1016.52 1016.40 1016.28 1016.12 1016.04 1015.96 1015.84 1015.68 1015.64 1015.56 1015.48 1015.40 1015.28 1015.20 1015.12 1015.04 1014.96 1014.84 1014.80 1014.68 1014.48 1014.32 1014.24 1014.04 1013.84 1013.72 1013.72 1013.68 1013.56 1013.48 1013.32 1013.16 1013.12 1013.04 1012.96 1012.92 1012.84 1012.76 1012.64 1012.56
1018.24 1018.28 1018.28 1018.32 1018.32 1018.32 1018.32 1018.32 1018.32 1018.28 1018.28 1018.20 1018.12 1018.08 1018.04 1017.96 1017.88 1017.80 1017.68 1017.52 1017.36 1017.28 1017.12 1017.00 1016.88 1016.76 1016.64 1016.56 1016.44 1016.32 1016.24 1016.12 1016.00 1015.84 1015.72 1015.64 1015.56 1015.48 1015.40 1015.28 1015.16 1015.08 1014.96 1014.88 1014.84 1014.72 1014.64 1014.56 1014.40 1014.24 1014.08 1013.96 1013.76 1013.56 1013.48 1013.48 1013.40 1013.28 1013.16 1013.08 1012.92 1012.80 1012.68 1012.68 1012.64 1012.56 1012.52 1012.40 1012.32
1018.24 1018.24 1018.28 1018.28 1018.28 1018.28 1018.32 1018.36 1018.36 1018.32 1018.24 1018.12 1018.04 1017.96 1017.88 1017.84 1017.72 1017.60 1017.48 1017.32 1017.16 1017.04 1016.92 1016.80 1016.68 1016.56 1016.40 1016.32 1016.24 1016.12 1016.04 1015.92 1015.80 1015.68 1015.56 1015.48 1015.36 1015.28 1015.16 1015.00 1014.92 1014.80 1014.68 1014.56 1014.52 1014.40 1014.28 1014.24 1014.12 1013.92 1013.80 1013.68 1013.56 1013.40 1013.28 1013.28 1013.16 1013.00 1012.88 1012.80 1012.64 1012.52 1012.40 1012.36 1012.28 1012.28 1012.20 1012.12 1012.04
1018.28 1018.28 1018.28 1018.28 1018.28 1018.32 1018.32 1018.28 1018.24 1018.16 1018.08 1018.00 1017.84 1017.76 1017.68 1017.60 1017.48 1017.36 1017.28 1017.12 1017.00 1016.84 1016.68 1016.56 1016.52 1016.40 1016.28 1016.16 1016.04 1015.96 1015.84 1015.72 1015.64 1015.48 1015.36 1015.24 1015.12 1015.00 1014.88 1014.76 1014.64 1014.56 1014.40 1014.28 1014.24 1014.12 1014.00 1013.88 1013.72 1013.60 1013.48 1013.36 1013.28 1013.12 1013.04 1013.00 1012.88 1012.76 1012.64 1012.52 1012.40 1012.28 1012.16 1012.08 1012.00 1012.00 1011.92 1011.84 1011.72
1018.24 1018.28 1018.28 1018.28 1018.28 1018.28 1018.28 1018.20 1018.12 1018.00 1017.84 1017.76 1017.64 1017.56 1017.44 1017.36 1017.24 1017.12 1017.00 1016.92 1016.76 1016.56 1016.44 1016.40 1016.32 1016.24 1016.12 1016.00 1015.88 1015.76 1015.64 1015.56 1015.44 1015.32 1015.20 1015.04 1014.88 1014.76 1014.64 1014.52 1014.40 1014.28 1014.16 1014.08 1014.00 1013.92 1013.76 1013.56 1013.40 1013.28 1013.12 1013.00 1012.96 1012.84 1012.72 1012.68 1012.56 1012.44 1012.32 1012.20 1012.12 1012.04 1011.92 1011.80 1011.76 1011.68 1011.64 1011.56 1011.44
1018.20 1018.20 1018.20 1018.24 1018.24 1018.20 1018.16 1018.04 1017.92 1017.80 1017.68 1017.56 1017.44 1017.36 1017.24 1017.12 1017.00 1016.92 1016.84 1016.68 1016.56 1016.40 1016.28 1016.20 1016.16 1016.08 1015.92 1015.80 1015.68 1015.60 1015.48 1015.40 1015.28 1015.16 1015.00 1014.84 1014.68 1014.56 1014.40 1014.28 1014.16 1014.04 1013.92 1013.84 1013.76 1013.68 1013.52 1013.32 1013.16 1013.00 1012.84 1012.68 1012.56 1012.48 1012.36 1012.28 1012.20 1012.12 1012.00 1011.92 1011.80 1011.68 1011.60 1011.48 1011.44 1011.40 1011.32 1011.28 1011.16
1018.16 1018.16 1018.12 1018.12 1018.12 1018.08 1018.00 1017.88 1017.72 1017.56 1017.44 1017.36 1017.28 1017.16 1017.08 1016.92 1016.84 1016.72 1016.64 1016.52 1016.40 1016.28 1016.16 1016.08 1016.00 1015.88 1015.76 1015.68 1015.56 1015.44 1015.36 1015.28 1015.12 1014.96 1014.84 1014.64 1014.52 1014.40 1014.24 1014.04 1013.92 1013.84 1013.68 1013.56 1013.52 1013.40 1013.28 1013.08 1012.92 1012.76 1012.56 1012.40 1012.28 1012.12 1012.08 1012.00 1011.84 1011.72 1011.64 1011.56 1011.40 1011.28 1011.24 1011.12 1011.08 1011.08 1011.00 1010.96 1010.84
1018.12 1018.08 1018.08 1018.04 1018.00 1017.92 1017.84 1017.68 1017.56 1017.40 1017.28 1017.20 1017.12 1017.04 1016.96 1016.80 1016.68 1016.60 1016.52 1016.40 1016.32 1016.24 1016.08 1015.92 1015.84 1015.72 1015.68 1015.64 1015.48 1015.36 1015.24 1015.12 1014.96 1014.84 1014.64 1014.40 1014.28 1014.16 1014.00 1013.84 1013.68 1013.60 1013.48 1013.36 1013.28 1013.12 1013.00 1012.84 1012.68 1012.56 1012.36 1012.16 1012.00 1011.84 1011.76 1011.68 1011.56 1011.40 1011.28 1011.12 1011.04 1010.92 1010.84 1010.76 1010.72 1010.68 1010.64 1010.56 1010.52
1018.00 1018.00 1018.00 1017.92 1017.84 1017.76 1017.68 1017.56 1017.44 1017.32 1017.20 1017.08 1017.00 1016.92 1016.84 1016.68 1016.56 1016.48 1016.40 1016.32 1016.20 1016.08 1015.96 1015.84 1015.68 1015.56 1015.52 1015.40 1015.36 1015.24 1015.08 1014.92 1014.80 1014.64 1014.40 1014.24 1014.04 1013.92 1013.76 1013.60 1013.44 1013.36 1013.24 1013.12 1012.96 1012.84 1012.72 1012.60 1012.48 1012.36 1012.16 1012.00 1011.80 1011.64 1011.48 1011.36 1011.24 1011.08 1010.96 1010.80 1010.68 1010.56 1010.44 1010.36 1010.32 1010.28 1010.20 1010.16 1010.12
1017.92 1017.88 1017.84 1017.80 1017.72 1017.68 1017.56 1017.44 1017.36 1017.24 1017.12 1016.96 1016.92 1016.84 1016.68 1016.56 1016.44 1016.40 1016.28 1016.20 1016.08 1015.96 1015.84 1015.72 1015.64 1015.52 1015.36 1015.20 1015.12 1015.04 1014.92 1014.72 1014.56 1014.40 1014.24 1014.00 1013.84 1013.68 1013.56 1013.40 1013.24 1013.12 1013.00 1012.88 1012.72 1012.60 1012.44 1012.32 1012.24 1012.12 1012.00 1011.84 1011.64 1011.44 1011.28 1011.12 1010.96 1010.76 1010.64 1010.48 1010.32 1010.20 1010.08 1010.00 1009.88 1009.84 1009.76 1009.72 1009.64
1017.76 1017.76 1017.72 1017.68 1017.60 1017.52 1017.44 1017.36 1017.28 1017.12 1017.00 1016.88 1016.80 1016.68 1016.56 1016.48 1016.40 1016.28 1016.12 1016.08 1016.00 1015.84 1015.72 1015.56 1015.52 1015.40 1015.24 1015.08 1014.96 1014.84 1014.72 1014.56 1014.32 1014.16 1014.00 1013.84 1013.68 1013.52 1013.32 1013.16 1013.04 1012.92 1012.80 1012.68 1012.56 1012.40 1012.20 1012.08 1012.00 1011.88 1011.76 1011.60 1011.44 1011.28 1011.08 1010.88 1010.68 1010.52 1010.36 1010.16 1010.04 1009.88 1009.72 1009.64 1009.52 1009.40 1009.32 1009.24 1009.12
1017.64 1017.60 1017.56 1017.56 1017.44 1017.40 1017.32 1017.20 1017.12 1016.96 1016.88 1016.80 1016.68 1016.56 1016.44 1016.40 1016.28 1016.12 1016.00 1015.88 1015.84 1015.76 1015.60 1015.44 1015.32 1015.20 1015.04 1014.92 1014.76 1014.64 1014.52 1014.36 1014.12 1013.96 1013.76 1013.64 1013.48 1013.32 1013.12 1012.96 1012.84 1012.68 1012.60 1012.44 1012.32 1012.12 1012.00 1011.84 1011.72 1011.64 1011.52 1011.36 1011.20 1011.00 1010.84 1010.68 1010.44 1010.28 1010.08 1009.92 1009.76 1009.56 1009.40 1009.28 1009.16 1009.04 1008.96 1008.84 1008.72
1017.56 1017.52 1017.44 1017.40 1017.36 1017.28 1017.16 1017.08 1016.96 1016.84 1016.72 1016.64 1016.56 1016.40 1016.32 1016.20 1016.12 1016.00 1015.84 1015.68 1015.64 1015.56 1015.52 1015.36 1015.16 1015.00 1014.84 1014.72 1014.56 1014.40 1014.24 1014.12 1013.96 1013.72 1013.56 1013.40 1013.24 1013.08 1012.92 1012.76 1012.64 1012.48 1012.32 1012.20 1012.04 1011.88 1011.72 1011.60 1011.48 1011.40 1011.28 1011.08 1010.92 1010.72 1010.56 1010.40 1010.20 1010.00 1009.84 1009.68 1009.52 1009.32 1009.12 1008.96 1008.84 1008.68 1008.60 1008.48 1008.40
1017.44 1017.40 1017.32 1017.28 1017.24 1017.12 1017.04 1016.96 1016.84 1016.72 1016.64 1016.52 1016.40 1016.28 1016.12 1016.00 1015.92 1015.84 1015.68 1015.60 1015.52 1015.40 1015.32 1015.24 1015.04 1014.88 1014.68 1014.52 1014.32 1014.16 1014.00 1013.84 1013.68 1013.52 1013.32 1013.16 1013.00 1012.84 1012.68 1012.60 1012.40 1012.24 1012.08 1011.96 1011.80 1011.64 1011.52 1011.40 1011.24 1011.12 1011.00 1010.84 1010.68 1010.48 1010.32 1010.12 1009.96 1009.76 1009.60 1009.40 1009.24 1009.04 1008.88 1008.72 1008.56 1008.40 1008.28 1008.12 1008.04
1017.32 1017.28 1017.24 1017.20 1017.12 1017.00 1016.96 1016.84 1016.76 1016.64 1016.52 1016.36 1016.24 1016.12 1016.00 1015.84 1015.72 1015.64 1015.56 1015.48 1015.40 1015.28 1015.20 1015.04 1014.88 1014.72 1014.56 1014.32 1014.12 1013.96 1013.76 1013.60 1013.44 1013.28 1013.12 1012.96 1012.80 1012.68 1012.52 1012.40 1012.20 1012.00 1011.84 1011.68 1011.56 1011.40 1011.28 1011.20 1011.08 1010.96 1010.80 1010.68 1010.48 1010.32 1010.16 1010.00 1009.80 1009.56 1009.36 1009.16 1008.96 1008.84 1008.68 1008.52 1008.36 1008.16 1008.00 1007.84 1007.68
1017.24 1017.20 1017.16 1017.12 1016.96 1016.92 1016.84 1016.72 1016.60 1016.48 1016.36 1016.24 1016.12 1015.96 1015.84 1015.68 1015.56 1015.48 1015.40 1015.32 1015.24 1015.12 1015.04 1014.88 1014.72 1014.56 1014.36 1014.20 1014.00 1013.84 1013.60 1013.40 1013.20 1013.04 1012.92 1012.80 1012.60 1012.40 1012.28 1012.16 1012.00 1011.80 1011.64 1011.44 1011.36 1011.24 1011.12 1010.96 1010.84 1010.68 1010.56 1010.44 1010.24 1010.04 1009.92 1009.76 1009.56 1009.40 1009.16 1008.96 1008.80 1008.60 1008.44 1008.32 1008.12 1008.00 1007.80 1007.60 1007.44
1017.16 1017.12 1017.08 1016.96 1016.88 1016.84 1016.68 1016.60 1016.44 1016.32 1016.20 1016.08 1015.92 1015.80 1015.68 1015.56 1015.44 1015.36 1015.28 1015.20 1015.08 1014.96 1014.88 1014.72 1014.56 1014.36 1014.16 1014.00 1013.84 1013.68 1013.48 1013.20 1012.96 1012.72 1012.56 1012.44 1012.32 1012.16 1012.04 1011.88 1011.72 1011.56 1011.40 1011.24 1011.12 1011.04 1010.96 1010.80 1010.60 1010.44 1010.32 1010.20 1010.00 1009.80 1009.64 1009.52 1009.32 1009.12 1008.92 1008.72 1008.52 1008.32 1008.16 1008.00 1007.88 1007.76 1007.60 1007.40 1007.28
1017.12 1017.08 1017.00 1016.92 1016.84 1016.68 1016.56 1016.44 1016.32 1016.16 1016.04 1015.92 1015.80 1015.68 1015.56 1015.44 1015.32 1015.24 1015.12 1015.00 1014.88 1014.80 1014.64 1014.48 1014.32 1014.16 1014.00 1013.76 1013.56 1013.40 1013.20 1012.96 1012.72 1012.52 1012.28 1012.12 1012.00 1011.96 1011.84 1011.68 1011.48 1011.28 1011.12 1010.96 1010.84 1010.80 1010.72 1010.64 1010.48 1010.28 1010.12 1009.96 1009.72 1009.56 1009.40 1009.20 1009.04 1008.88 1008.68 1008.48 1008.28 1008.08 1007.88 1007.68 1007.52 1007.40 1007.28 1007.12 1007.04
1017.04 1016.96 1016.88 1016.84 1016.72 1016.60 1016.48 1016.32 1016.20 1016.08 1015.96 1015.84 1015.68 1015.60 1015.48 1015.36 1015.24 1015.12 1014.96 1014.84 1014.68 1014.56 1014.40 1014.28 1014.12 1013.92 1013.76 1013.56 1013.28 1013.08 1012.88 1012.68 1012.52 1012.28 1012.12 1011.92 1011.80 1011.72 1011.64 1011.48 1011.28 1011.08 1010.88 1010.72 1010.60 1010.52 1010.40 1010.32 1010.28 1010.12 1009.96 1009.76 1009.56 1009.32 1009.12 1008.88 1008.72 1008.64 1008.48 1008.28 1008.12 1007.88 1007.68 1007.40 1007.20 1007.08 1006.96 1006.84 1006.72
1016.96 1016.88 1016.80 1016.68 1016.60 1016.48 1016.36 1016.24 1016.12 1016.00 1015.84 1015.72 1015.64 1015.52 1015.40 1015.28 1015.16 1015.04 1014.88 1014.68 1014.52 1014.36 1014.24 1014.08 1013.88 1013.68 1013.48 1013.28 1012.96 1012.76 1012.60 1012.40 1012.28 1012.12 1012.00 1011.84 1011.68 1011.52 1011.36 1011.20 1011.00 1010.84 1010.60 1010.44 1010.32 1010.20 1010.12 1010.00 1009.88 1009.80 1009.68 1009.52 1009.28 1009.04 1008.80 1008.56 1008.40 1008.28 1008.16 1008.00 1007.84 1007.64 1007.40 1007.20 1006.96 1006.84 1006.72 1006.56 1006.48
1016.88 1016.80 1016.68 1016.56 1016.48 1016.36 1016.24 1016.12 1016.00 1015.88 1015.80 1015.68 1015.56 1015.44 1015.32 1015.24 1015.12 1014.96 1014.76 1014.56 1014.36 1014.20 1014.00 1013.84 1013.64 1013.44 1013.20 1012.96 1012.72 1012.56 1012.40 1012.28 1012.12 1012.00 1011.84 1011.68 1011.48 1011.28 1011.12 1010.88 1010.68 1010.48 1010.28 1010.08 1009.96 1009.84 1009.68 1009.56 1009.44 1009.36 1009.28 1009.16 1008.96 1008.76 1008.52 1008.28 1008.04 1007.88 1007.72 1007.56 1007.36 1007.20 1007.08 1006.92 1006.76 1006.64 1006.56 1006.40 1006.28
1016.80 1016.68 1016.60 1016.48 1016.36 1016.24 1016.12 1016.00 1015.92 1015.84 1015.68 1015.60 1015.52 1015.40 1015.28 1015.16 1014.96 1014.76 1014.56 1014.40 1014.20 1014.00 1013.84 1013.60 1013.40 1013.20 1012.96 1012.76 1012.56 1012.36 1012.16 1012.08 1011.92 1011.76 1011.60 1011.40 1011.24 1011.00 1010.80 1010.56 1010.32 1010.08 1009.84 1009.72 1009.56 1009.40 1009.28 1009.16 1009.04 1008.96 1008.84 1008.80 1008.68 1008.44 1008.20 1007.96 1007.68 1007.52 1007.32 1007.12 1006.92 1006.76 1006.68 1006.56 1006.40 1006.32 1006.24 1006.12 1006.04
1016.68 1016.60 1016.48 1016.40 1016.28 1016.12 1016.04 1015.96 1015.84 1015.76 1015.68 1015.60 1015.48 1015.36 1015.20 1015.00 1014.84 1014.60 1014.40 1014.24 1014.00 1013.80 1013.64 1013.48 1013.28 1013.04 1012.80 1012.60 1012.40 1012.16 1012.00 1011.80 1011.68 1011.56 1011.36 1011.12 1010.92 1010.68 1010.44 1010.20 1010.00 1009.72 1009.48 1009.32 1009.20 1009.04 1008.88 1008.76 1008.64 1008.52 1008.44 1008.36 1008.28 1008.12 1007.84 1007.56 1007.40 1007.12 1006.92 1006.68 1006.52 1006.40 1006.28 1006.12 1006.04 1006.00 1005.88 1005.80 1005.72
1016.60 1016.56 1016.40 1016.32 1016.20 1016.04 1015.92 1015.84 1015.76 1015.68 1015.64 1015.56 1015.40 1015.24 1015.08 1014.84 1014.64 1014.40 1014.24 1014.04 1013.84 1013.60 1013.44 1013.28 1013.08 1012.84 1012.60 1012.40 1012.16 1012.00 1011.76 1011.56 1011.40 1011.28 1011.12 1010.88 1010.64 1010.40 1010.12 1009.84 1009.64 1009.36 1009.12 1008.92 1008.76 1008.64 1008.48 1008.36 1008.20 1008.08 1008.00 1007.92 1007.84 1007.68 1007.44 1007.24 1006.96 1006.76 1006.56 1006.32 1006.12 1006.00 1005.88 1005.80 1005.68 1005.60 1005.52 1005.48 1005.40
1016.56 1016.48 1016.40 1016.24 1016.12 1016.00 1015.84 1015.72 1015.68 1015.60 1015.52 1015.40 1015.28 1015.12 1014.92 1014.68 1014.48 1014.28 1014.08 1013.92 1013.72 1013.48 1013.24 1013.00 1012.80 1012.56 1012.28 1012.12 1011.96 1011.72 1011.56 1011.40 1011.20 1011.00 1010.84 1010.64 1010.40 1010.12 1009.84 1009.56 1009.28 1008.96 1008.72 1008.52 1008.40 1008.24 1008.08 1007.92 1007.76 1007.60 1007.52 1007.44 1007.40 1007.24 1007.04 1006.84 1006.60 1006.36 1006.12 1005.92 1005.72 1005.60 1005.52 1005.40 1005.28 1005.16 1005.12 1005.08 1005.08
1016.52 1016.44 1016.32 1016.20 1016.00 1015.88 1015.76 1015.68 1015.56 1015.48 1015.40 1015.28 1015.12 1014.92 1014.72 1014.52 1014.28 1014.12 1013.92 1013.72 1013.56 1013.32 1013.08 1012.84 1012.56 1012.32 1012.12 1011.88 1011.72 1011.56 1011.36 1011.16 1010.96 1010.76 1010.56 1010.36 1010.12 1009.84 1009.52 1009.24 1008.92 1008.60 1008.40 1008.16 1008.00 1007.80 1007.64 1007.48 1007.32 1007.16 1007.04 1006.96 1006.88 1006.76 1006.56 1006.40 1006.16 1005.92 1005.68 1005.44 1005.28 1005.16 1005.04 1004.96 1004.88 1004.80 1004.68 1004.68 1004.68
1016.48 1016.40 1016.28 1016.12 1015.96 1015.80 1015.68 1015.56 1015.48 1015.36 1015.24 1015.12 1014.88 1014.72 1014.56 1014.40 1014.16 1013.96 1013.76 1013.56 1013.40 1013.16 1012.92 1012.68 1012.44 1012.24 1012.00 1011.84 1011.64 1011.40 1011.16 1010.96 1010.72 1010.52 1010.28 1010.08 1009.84 1009.56 1009.28 1008.96 1008.60 1008.32 1008.04 1007.80 1007.60 1007.40 1007.28 1007.08 1006.88 1006.68 1006.56 1006.48 1006.40 1006.28 1006.04 1005.84 1005.64 1005.40 1005.16 1004.96 1004.80 1004.68 1004.56 1004.48 1004.40 1004.32 1004.28 1004.24 1004.24
1016.40 1016.32 1016.20 1016.08 1015.92 1015.76 1015.60 1015.44 1015.32 1015.20 1015.08 1014.88 1014.68 1014.56 1014.40 1014.24 1014.04 1013.84 1013.60 1013.40 1013.20 1012.96 1012.72 1012.48 1012.28 1012.08 1011.84 1011.64 1011.44 1011.28 1011.00 1010.72 1010.48 1010.28 1010.00 1009.76 1009.52 1009.28 1008.96 1008.60 1008.28 1007.96 1007.68 1007.40 1007.24 1007.04 1006.84 1006.60 1006.40 1006.20 1006.08 1006.00 1005.88 1005.72 1005.52 1005.28 1005.08 1004.84 1004.60 1004.44 1004.28 1004.12 1004.04 1003.96 1003.88 1003.84 1003.80 1003.76 1003.72
1016.40 1016.36 1016.24 1016.08 1015.88 1015.68 1015.52 1015.36 1015.20 1015.04 1014.84 1014.72 1014.56 1014.40 1014.20 1014.04 1013.84 1013.64 1013.44 1013.28 1013.00 1012.76 1012.48 1012.28 1012.04 1011.84 1011.68 1011.44 1011.28 1011.00 1010.76 1010.52 1010.24 1009.96 1009.68 1009.48 1009.28 1008.96 1008.60 1008.24 1007.88 1007.56 1007.28 1007.04 1006.84 1006.64 1006.40 1006.16 1005.88 1005.68 1005.56 1005.48 1005.40 1005.20 1004.96 1004.76 1004.56 1004.28 1004.08 1003.88 1003.72 1003.56 1003.48 1003.40 1003.36 1003.28 1003.28 1003.28 1003.24
1016.40 1016.32 1016.24 1016.04 1015.84 1015.60 1015.40 1015.28 1015.08 1014.88 1014.72 1014.56 1014.40 1014.24 1014.04 1013.84 1013.64 1013.44 1013.28 1013.08 1012.84 1012.56 1012.28 1012.08 1011.88 1011.68 1011.48 1011.24 1011.00 1010.72 1010.44 1010.24 1010.00 1009.68 1009.40 1009.16 1008.96 1008.68 1008.32 1007.96 1007.56 1007.20 1006.88 1006.68 1006.44 1006.24 1005.96 1005.68 1005.40 1005.16 1005.04 1004.96 1004.84 1004.64 1004.40 1004.20 1004.00 1003.76 1003.56 1003.36 1003.16 1003.04 1002.96 1002.92 1002.84 1002.80 1002.72 1002.68 1002.68
1016.28 1016.28 1016.12 1016.00 1015.76 1015.56 1015.36 1015.16 1014.96 1014.80 1014.64 1014.40 1014.28 1014.12 1013.92 1013.72 1013.52 1013.28 1013.08 1012.96 1012.72 1012.40 1012.12 1011.92 1011.72 1011.52 1011.28 1011.08 1010.80 1010.48 1010.20 1009.96 1009.72 1009.48 1009.16 1008.88 1008.64 1008.40 1008.12 1007.68 1007.28 1006.88 1006.56 1006.28 1006.04 1005.76 1005.52 1005.24 1004.96 1004.68 1004.56 1004.44 1004.28 1004.12 1003.88 1003.68 1003.44 1003.24 1003.00 1002.84 1002.64 1002.48 1002.44 1002.40 1002.36 1002.28 1002.20 1002.12 1002.08
1016.24 1016.16 1016.04 1015.88 1015.68 1015.52 1015.28 1015.08 1014.88 1014.72 1014.56 1014.32 1014.12 1013.96 1013.76 1013.56 1013.40 1013.12 1012.96 1012.84 1012.64 1012.40 1012.12 1011.84 1011.60 1011.36 1011.12 1010.88 1010.60 1010.24 1009.88 1009.56 1009.40 1009.20 1008.92 1008.64 1008.36 1008.12 1007.84 1007.48 1007.00 1006.56 1006.24 1005.96 1005.64 1005.36 1005.08 1004.80 1004.52 1004.24 1004.04 1003.96 1003.80 1003.60 1003.40 1003.12 1002.92 1002.68 1002.48 1002.32 1002.12 1002.00 1001.88 1001.84 1001.80 1001.72 1001.60 1001.56 1001.56
1016.20 1016.12 1016.00 1015.84 1015.68 1015.44 1015.24 1014.96 1014.80 1014.64 1014.48 1014.28 1014.04 1013.84 1013.64 1013.40 1013.28 1013.08 1012.84 1012.68 1012.52 1012.28 1012.04 1011.76 1011.44 1011.16 1010.92 1010.68 1010.40 1010.04 1009.64 1009.28 1009.04 1008.84 1008.60 1008.36 1008.04 1007.76 1007.48 1007.16 1006.72 1006.28 1005.88 1005.56 1005.24 1004.92 1004.64 1004.32 1004.04 1003.80 1003.60 1003.48 1003.32 1003.12 1002.84 1002.64 1002.40 1002.20 1002.00 1001.80 1001.68 1001.52 1001.36 1001.28 1001.24 1001.16 1001.08 1001.00 1001.00
1016.12 1016.00 1015.88 1015.72 1015.56 1015.36 1015.12 1014.92 1014.68 1014.52 1014.36 1014.20 1014.00 1013.76 1013.56 1013.32 1013.12 1012.96 1012.72 1012.52 1012.32 1012.12 1011.84 1011.56 1011.28 1010.96 1010.72 1010.48 1010.20 1009.84 1009.44 1009.08 1008.72 1008.48 1008.28 1008.00 1007.68 1007.40 1007.12 1006.80 1006.40 1005.96 1005.52 1005.12 1004.80 1004.44 1004.16 1003.88 1003.60 1003.40 1003.20 1003.04 1002.88 1002.68 1002.44 1002.24 1002.00 1001.76 1001.52 1001.28 1001.12 1001.00 1000.88 1000.72 1000.68 1000.64 1000.56 1000.52 1000.52
Wind_Speed
2 1 1 0 0 1 1 1 1 2 2 2 2 2 2 2 3 3 3 3 3 3 3 4 4 5 6 7 8 8 9 9 10 10 10 10 10 11 11 11 10 10 10 10 9 8 8 7 6 5 5 5 6 7 7 7 7 8 9 9 8 9 10 11 11 11 11 12 10
2 1 1 0 1 1 1 1 1 2 2 2 2 2 2 2 3 3 3 3 3 3 3 4 4 5 7 8 8 8 8 8 9 9 10 10 10 11 11 10 10 10 10 10 10 8 7 7 7 6 5 5 6 7 7 7 8 9 10 11 9 9 9 10 10 11 11 11 10
1 1 1 0 1 1 1 1 1 2 2 2 2 2 2 2 2 3 3 3 4 4 4 4 4 6 7 8 7 7 7 8 9 9 9 9 10 10 10 10 11 11 10 10 9 9 8 8 7 6 6 6 7 7 8 8 8 9 10 11 9 8 8 8 9 10 10 9 10
1 1 1 1 1 1 2 2 2 2 2 2 2 2 2 2 2 3 3 4 4 4 4 4 5 5 6 7 8 8 8 8 9 9 9 9 10 11 11 11 11 11 11 10 10 10 10 9 7 6 6 8 9 9 8 8 9 9 9 9 8 8 9 9 9 8 8 8 9
1 1 1 1 2 2 2 2 3 3 3 2 2 2 2 2 2 3 3 4 4 4 5 6 5 5 6 7 9 9 9 9 9 9 9 10 10 11 11 11 11 11 11 11 11 11 11 11 8 7 7 8 8 8 9 9 10 9 9 8 8 8 9 9 9 8 8 8 8
2 2 2 2 2 2 2 2 3 3 3 2 3 3 3 3 3 3 4 4 5 6 6 6 6 6 7 8 9 9 9 9 9 9 9 10 10 11 11 12 12 11 11 11 12 12 12 11 9 8 8 8 8 9 10 11 10 10 9 9 9 9 9 9 9 9 9 10 11
2 2 3 2 2 2 2 2 3 3 3 2 3 4 5 4 5 5 6 6 6 6 6 5 6 7 7 8 9 9 9 9 10 10 10 11 11 11 11 11 12 12 12 12 12 12 11 10 9 8 8 8 8 10 11 11 11 11 10 11 9 9 9 10 9 9 10 13 14
2 3 3 3 3 3 3 3 3 3 3 3 4 5 6 6 7 7 7 7 6 6 6 6 7 8 9 9 9 9 10 10 11 11 11 11 12 12 12 12 12 12 12 12 12 12 11 10 9 8 8 8 8 9 11 12 13 13 13 13 11 10 9 10 9 10 11 14 15
2 2 2 3 3 3 3 3 3 3 4 4 5 6 7 7 8 8 7 7 7 7 7 7 8 9 10 10 10 10 10 10 11 11 12 12 12 12 12 12 13 13 13 12 12 13 13 10 9 9 9 9 9 10 11 13 14 14 14 14 13 12 12 11 11 12 14 15 16
2 2 2 3 3 3 3 3 3 4 5 6 7 7 7 7 7 7 7 7 7 8 9 9 10 10 11 11 11 11 10 10 11 11 12 12 12 13 13 13 13 14 14 13 13 13 13 11 11 11 11 11 12 13 14 14 15 15 15 12 13 14 15 14 15 15 15 15 16
2 2 2 2 3 3 3 4 4 4 5 6 7 7 7 7 8 8 8 8 9 10 11 10 11 11 11 11 11 11 11 11 11 12 12 13 14 14 14 14 15 15 15 15 14 13 12 11 12 13 14 13 14 14 15 15 16 17 16 14 15 16 17 17 17 16 16 16 17
2 2 2 3 3 3 3 4 4 5 6 7 8 8 8 8 9 9 9 10 11 11 11 11 11 12 11 11 11 11 11 12 12 13 13 14 15 16 16 16 16 16 16 16 15 13 12 13 14 15 16 17 14 13 14 16 16 17 17 17 17 18 18 18 18 16 15 15 16
2 2 3 3 3 4 4 5 5 6 7 8 9 9 9 9 10 10 11 11 12 11 11 11 12 12 12 12 12 12 12 13 14 14 14 15 16 16 16 16 17 17 17 16 15 14 13 14 16 17 18 18 16 15 15 16 17 17 18 18 19 19 19 19 19 18 17 17 17
2 3 3 3 4 4 5 6 6 7 8 10 9 9 9 10 10 10 11 11 12 12 12 12 12 11 12 13 13 13 14 14 15 16 16 16 16 16 17 17 17 17 16 15 15 15 16 16 17 18 19 19 18 18 18 18 17 18 18 19 19 20 20 20 20 19 19 19 19
2 3 3 4 4 5 6 7 7 8 9 10 10 10 10 10 10 10 11 12 12 12 12 12 11 12 12 14 14 15 15 15 15 16 17 17 17 17 17 17 17 17 16 16 16 16 17 18 18 19 19 19 20 20 19 19 19 19 19 19 20 20 20 20 20 20 20 20 20
3 3 4 4 5 6 7 8 7 8 9 10 10 10 10 10 10 11 11 12 12 12 12 12 13 13 13 13 14 15 15 15 15 16 16 17 17 17 17 18 18 18 18 17 17 17 17 18 18 18 19 19 20 20 20 20 20 20 20 20 21 21 21 21 21 21 21 21 21
4 4 5 6 7 8 8 9 8 9 10 11 11 11 11 11 10 11 11 12 12 12 13 14 13 13 13 14 14 14 14 14 15 15 16 16 17 18 18 18 18 18 18 18 18 18 18 18 18 18 19 19 20 20 20 21 20 20 21 21 21 22 22 22 22 22 22 22 22
5 5 6 7 8 9 10 10 10 11 11 12 12 12 11 11 12 12 12 12 13 13 14 15 14 14 14 15 14 13 13 14 15 16 16 17 18 18 19 19 19 19 18 18 19 19 19 19 19 19 18 19 19 19 20 20 20 21 21 22 22 22 22 23 23 22 22 22 23
6 6 7 8 9 10 11 11 12 12 12 12 12 12 12 13 13 13 13 13 13 14 15 16 15 15 15 16 16 15 14 14 16 17 17 18 18 18 19 19 19 19 19 19 19 19 20 20 19 19 19 19 19 19 20 20 20 21 21 22 22 22 23 23 23 23 22 23 23
6 7 8 9 10 11 11 12 12 13 13 12 13 13 14 14 14 14 14 14 14 15 15 16 16 16 16 17 17 16 15 14 16 17 18 18 18 18 19 19 19 19 19 19 19 19 19 19 19 19 19 20 20 20 20 21 21 21 21 21 21 22 23 23 23 23 23 24 24
7 8 9 10 10 11 12 12 12 13 13 13 14 14 14 14 14 14 15 15 15 15 15 16 16 17 17 17 18 18 17 15 16 17 18 18 18 19 19 19 19 19 18 18 19 19 19 19 19 19 19 19 20 20 20 20 20 21 21 20 20 21 23 23 23 24 24 24 24
8 9 9 10 11 11 12 12 13 13 13 14 14 15 15 15 15 15 15 15 15 15 16 16 17 17 17 18 18 18 17 16 16 17 17 17 18 18 18 18 18 19 19 19 19 19 19 19 19 19 19 19 19 20 20 20 20 20 21 21 22 22 23 23 23 24 24 24 24
8 9 9 10 11 12 12 13 13 13 14 14 15 15 15 15 15 15 15 15 15 15 15 15 15 16 17 18 18 18 18 18 18 18 18 17 18 18 18 17 18 18 18 17 17 17 17 17 17 18 18 17 18 19 20 20 19 20 20 21 22 22 23 23 23 23 23 23 23
9 9 9 9 11 12 13 13 14 14 14 15 15 16 16 16 16 15 15 15 15 15 15 14 14 15 17 17 17 18 18 18 19 19 18 18 18 18 17 16 16 16 16 15 14 15 15 14 14 15 15 16 16 17 17 18 18 18 19 20 20 21 21 21 22 22 23 23 23
9 10 10 10 12 12 13 14 14 15 15 15 16 16 16 16 16 15 15 15 16 16 16 16 16 16 16 16 16 17 17 17 18 18 19 18 18 17 16 15 15 14 13 13 16 19 20 18 16 14 14 14 15 16 16 17 17 18 18 18 19 19 19 20 21 21 22 22 22
9 10 11 11 12 13 14 14 15 15 16 16 16 16 16 16 15 15 16 16 16 16 16 16 16 15 15 15 16 16 16 16 16 17 18 18 18 17 16 15 14 12 12 14 18 21 23 23 22 20 17 15 15 16 16 16 17 18 18 18 19 19 19 19 20 20 20 20 21
9 10 11 12 13 14 14 15 15 15 16 16 16 16 16 16 15 16 16 17 17 17 16 15 15 14 14 14 15 16 16 15 16 17 17 18 18 18 17 16 14 12 13 16 21 23 24 25 25 24 22 18 17 16 16 16 17 18 19 19 19 19 20 20 21 20 20 20 20
9 10 11 12 13 14 15 15 15 16 16 16 16 16 16 16 16 17 17 17 17 16 15 14 13 12 12 12 14 16 17 17 17 16 16 17 17 18 18 16 15 15 16 20 23 25 26 26 27 26 25 21 18 17 17 18 18 18 18 18 18 19 20 20 19 19 19 20 20
10 10 12 13 14 14 15 15 16 16 16 16 16 16 16 16 16 17 17 17 17 16 14 13 12 11 11 13 15 16 17 17 16 16 16 17 17 18 18 18 17 18 20 24 25 26 27 27 27 27 27 25 19 16 14 15 16 16 16 15 16 17 18 18 17 17 18 19 19
10 11 12 13 14 14 15 15 15 15 15 15 15 16 16 16 16 17 17 17 17 16 15 13 13 13 14 16 16 16 16 16 15 15 16 17 18 18 19 19 19 19 21 24 26 27 27 28 28 28 28 27 23 19 16 16 16 16 15 15 16 17 18 18 19 19 18 17 18
10 11 12 13 14 14 15 15 15 15 15 14 15 16 16 16 17 17 17 16 16 16 16 16 16 17 17 17 16 16 17 17 16 16 17 17 18 19 20 21 21 21 22 25 27 28 28 28 28 28 28 28 23 19 16 16 17 16 16 15 17 18 19 19 19 19 20 19 19
10 11 12 13 14 14 14 14 14 14 15 15 16 16 16 16 16 16 16 16 16 17 17 17 18 18 18 18 17 17 18 18 18 17 17 18 19 20 21 21 21 22 23 25 27 28 28 28 28 28 28 28 24 20 18 18 18 18 18 19 20 21 21 19 18 19 20 21 20
10 11 12 13 14 14 14 14 14 14 14 15 15 16 16 16 16 16 16 15 15 16 17 17 18 18 18 18 18 18 18 18 18 19 19 19 20 21 21 21 20 20 22 25 27 28 28 28 28 28 28 28 24 21 19 18 17 17 17 19 20 21 22 23 22 21 21 21 20
10 11 13 13 14 14 14 14 14 14 14 15 15 15 16 16 17 17 16 15 15 15 16 16 17 17 17 17 18 18 18 17 18 19 20 20 20 21 21 20 17 18 22 26 28 28 29 29 29 29 29 28 23 19 18 19 18 18 18 19 20 21 22 22 23 23 23 23 21
11 12 13 13 14 14 14 14 14 14 14 15 15 16 16 16 16 16 16 16 16 16 16 16 16 16 16 17 17 18 18 18 19 19 20 20 20 21 22 21 20 22 25 28 29 29 30 30 30 30 29 26 19 17 17 19 19 19 20 21 22 22 23 23 22 22 22 23 22
11 11 12 13 14 14 14 14 14 14 14 15 15 16 16 16 16 16 16 16 16 16 17 17 17 17 17 18 17 17 18 19 19 20 20 20 20 21 22 22 22 24 27 28 29 30 30 30 30 30 28 23 16 14 15 16 16 18 20 21 22 22 23 23 22 22 21 21 22
11 11 12 13 14 14 14 14 14 14 15 15 15 16 16 16 16 16 15 15 16 16 17 17 17 18 18 18 18 18 19 19 20 20 20 20 20 21 21 22 23 24 26 27 29 29 30 30 31 30 27 20 15 14 14 14 13 15 17 19 20 21 21 20 20 21 21 22 22
11 11 12 12 13 14 14 14 14 14 15 15 16 16 16 15 15 15 15 14 15 16 17 17 18 18 18 19 19 19 20 20 20 20 20 20 20 20 21 22 23 23 24 26 28 29 30 30 31 30 26 19 16 14 13 12 13 14 15 16 17 18 18 17 16 17 19 22 23
11 11 12 12 13 14 14 14 14 14 15 15 16 16 16 15 14 14 14 14 15 15 16 17 18 18 19 19 19 19 20 21 21 20 20 20 20 20 21 22 22 22 23 26 28 30 30 30 31 30 27 21 16 13 11 11 12 14 15 15 15 16 17 16 15 15 17 20 24
11 11 12 12 13 13 14 14 14 14 14 14 15 16 16 15 15 15 15 14 14 15 16 16 18 19 19 18 18 19 20 21 21 20 20 20 20 21 22 21 22 22 24 26 28 29 30 30 30 29 27 20 15 12 10 10 11 13 14 14 13 14 14 14 14 14 15 17 21
10 11 11 12 12 13 14 14 15 14 14 14 15 15 15 14 15 15 15 14 15 15 15 15 17 19 19 19 17 18 19 21 21 21 20 20 21 21 21 20 21 22 23 24 26 28 29 29 29 28 24 17 13 10 9 9 10 12 13 14 13 13 12 13 13 13 14 15 16
Wind_Direction
42 44 40 7 308 286 281 276 265 262 265 271 276 277 277 279 279 280 279 278 278 281 285 287 289 290 291 292 293 293 293 295 295 295 293 291 290 289 288 288 286 284 283 282 281 279 275 270 267 264 262 261 265 265 264 260 254 250 247 245 247 248 249 249 249 248 247 247 249
35 40 48 130 240 252 260 262 250 243 243 250 262 269 274 274 278 281 282 280 277 280 284 286 286 285 286 286 287 287 287 288 290 291 291 290 289 289 288 288 287 286 285 285 284 282 279 276 272 269 267 264 265 265 264 261 259 257 255 251 252 251 251 250 250 250 250 249 249
29 34 41 200 231 242 256 267 268 265 261 257 262 269 274 274 277 281 284 285 285 284 283 283 281 282 282 283 281 279 278 279 281 283 284 284 284 284 284 284 285 285 285 284 283 282 280 279 276 273 272 272 269 267 265 263 261 259 258 256 256 255 254 253 252 251 250 248 247
22 17 357 303 278 276 279 288 297 300 300 297 289 282 277 276 277 282 286 290 288 283 277 275 276 277 277 278 276 275 274 273 275 276 277 277 277 278 279 279 280 281 281 281 280 280 280 280 277 273 271 272 271 269 267 266 262 260 258 258 257 257 256 256 255 253 250 249 248
3 353 325 302 296 293 293 294 304 311 317 322 314 305 295 286 282 282 283 284 279 276 275 275 273 271 270 271 273 274 274 273 272 272 273 274 274 275 276 275 276 277 277 278 278 277 277 278 275 271 267 266 266 265 264 265 264 263 261 260 258 257 256 257 256 253 251 250 249
337 321 307 296 299 300 301 305 309 313 317 320 312 306 302 296 290 285 281 278 277 278 277 273 267 264 265 268 271 273 275 276 273 272 272 273 274 274 274 274 274 274 274 274 274 273 273 274 272 269 265 263 261 260 259 261 261 261 261 260 258 257 256 255 255 254 253 252 251
316 309 307 309 311 313 316 320 320 317 313 307 298 293 289 288 285 281 278 276 276 275 272 266 264 266 269 273 275 277 278 280 278 277 276 276 275 274 273 273 273 272 271 271 271 271 270 269 268 266 264 262 262 259 257 256 256 256 257 258 257 256 255 255 254 254 253 253 252
304 306 311 319 324 324 323 321 317 311 301 288 283 280 279 278 276 275 274 273 272 272 271 270 273 276 278 279 279 280 280 281 281 281 280 279 278 276 274 273 272 271 269 268 268 268 268 267 265 264 263 260 260 259 257 254 254 254 255 257 257 256 254 253 252 252 253 253 252
304 312 320 326 328 324 319 313 301 291 282 276 274 272 271 271 271 272 274 276 279 280 281 280 282 283 282 281 280 279 279 279 280 281 282 280 278 277 275 274 273 271 269 267 266 265 265 264 262 262 261 261 260 260 258 256 254 254 254 256 257 256 254 253 251 251 252 252 251
316 325 330 329 324 316 305 294 279 270 267 269 271 271 270 269 271 274 278 284 287 288 288 288 289 289 287 285 284 283 282 282 282 282 281 279 277 276 275 274 274 273 272 271 269 267 265 262 260 259 259 259 260 260 259 257 256 255 255 256 256 256 255 254 253 252 252 251 250
312 319 322 318 311 300 288 280 272 268 268 273 278 280 280 278 281 284 287 290 290 291 291 292 293 292 291 289 288 287 286 285 285 284 283 282 281 279 278 277 277 276 275 274 273 271 269 265 262 260 259 258 258 258 258 256 255 255 255 256 257 257 257 256 255 254 253 252 250
305 306 302 295 289 283 278 277 283 286 288 291 293 294 294 294 295 295 295 294 294 294 295 297 297 296 294 292 292 291 290 290 289 288 287 285 284 283 282 280 279 278 277 276 274 273 270 267 266 264 262 260 259 257 255 254 254 254 255 256 256 257 257 256 255 254 253 252 251
300 296 289 283 278 277 282 291 298 302 304 305 305 304 303 303 303 301 300 299 299 300 301 302 300 298 297 296 296 297 296 295 293 291 290 288 287 286 285 283 282 280 279 278 276 273 271 269 268 267 266 265 263 260 258 256 255 254 255 256 256 256 256 256 255 255 254 253 252
289 284 282 283 284 290 299 308 310 311 312 312 309 308 307 306 305 305 304 303 304 303 303 303 302 301 300 301 300 300 298 297 295 293 291 290 289 287 286 284 283 282 281 279 276 274 273 271 270 269 269 268 266 265 263 260 258 257 256 256 256 256 256 256 255 254 254 253 252
282 282 285 291 298 306 312 316 314 314 314 313 311 309 308 307 307 307 307 306 305 304 304 304 303 303 302 302 301 300 298 297 295 293 292 290 288 287 286 285 284 283 281 280 278 276 274 273 272 271 271 270 269 267 266 264 262 260 258 258 257 257 256 255 254 254 253 252 251
288 294 299 305 310 313 316 317 315 314 313 311 310 309 308 307 307 308 307 306 305 304 304 304 304 304 303 301 300 299 298 296 295 293 291 290 289 288 287 286 285 284 283 281 280 277 275 274 273 272 272 271 270 269 268 266 264 263 261 260 259 258 257 256 255 254 252 251 251
299 306 311 313 314 314 315 314 313 312 311 310 310 309 308 308 308 308 307 306 305 305 305 305 304 303 302 301 301 299 298 296 294 293 291 290 290 289 288 287 286 285 284 282 280 279 277 275 274 273 272 271 270 269 268 267 266 264 263 261 260 259 258 256 255 254 253 252 250
308 312 314 314 314 314 313 312 311 311 310 310 309 309 308 308 308 307 306 305 305 305 305 304 303 302 301 301 300 299 298 296 294 293 291 290 290 289 288 287 286 285 284 282 281 279 278 277 275 274 272 271 270 269 268 267 266 265 263 262 261 260 258 257 256 255 253 252 251
310 312 314 314 314 314 313 313 312 311 311 310 310 309 308 308 307 306 305 305 305 305 305 304 303 302 301 300 300 298 297 295 294 293 291 290 289 288 287 286 286 285 283 282 280 279 278 277 276 274 273 271 270 269 267 267 266 265 264 263 262 260 259 258 257 255 254 253 252
308 311 313 315 315 314 314 313 313 312 312 311 310 309 308 307 306 306 305 306 306 306 305 304 303 302 301 300 299 298 296 294 293 292 291 290 289 288 287 286 285 284 283 281 280 279 278 277 276 274 273 271 270 269 268 267 266 265 264 263 262 261 260 259 258 256 255 254 253
309 312 314 315 315 314 314 314 313 313 312 311 310 309 309 308 307 307 306 306 307 307 306 304 303 302 301 300 299 298 296 294 293 292 291 290 289 288 287 286 285 284 283 281 280 279 278 277 276 275 274 273 271 270 269 268 267 266 265 263 262 261 261 260 259 258 257 255 253
312 314 315 315 315 315 315 314 314 313 312 311 311 310 310 310 309 308 308 308 308 307 305 303 302 301 300 299 298 298 296 295 293 292 291 290 289 288 287 286 285 284 282 281 280 279 278 277 276 275 274 273 271 270 269 268 267 267 266 264 264 263 262 262 261 259 258 257 255
315 316 316 315 316 316 316 315 314 314 313 312 312 312 312 311 310 310 309 309 307 306 304 302 301 300 299 298 297 296 295 294 292 291 290 289 288 288 287 286 284 283 281 280 279 278 277 276 275 273 272 271 270 269 268 267 266 265 265 264 264 263 262 261 261 260 259 258 257
316 316 316 316 318 317 317 316 316 315 315 314 314 314 313 312 312 311 310 309 307 305 304 301 300 299 298 297 295 294 293 292 291 291 290 290 289 288 287 286 284 282 280 278 277 276 275 275 275 274 272 271 270 269 268 266 265 265 264 264 263 262 261 260 259 259 258 258 257
315 315 316 316 317 317 317 318 317 317 316 315 315 314 313 313 312 311 310 308 306 305 303 301 300 298 297 296 294 293 291 291 291 292 292 292 291 290 289 287 284 282 280 278 276 275 275 274 274 274 274 273 272 270 269 268 267 266 266 265 265 265 264 262 260 258 257 256 255
315 315 316 317 318 318 318 318 318 317 316 316 315 314 314 313 312 311 309 307 306 305 304 303 301 299 297 295 294 293 292 292 293 293 294 295 294 292 290 287 284 282 279 277 277 276 275 274 273 272 271 272 271 270 269 268 266 266 265 265 265 265 265 265 263 262 260 258 256
315 316 317 318 319 319 319 319 318 317 317 316 315 314 313 313 312 310 308 306 306 305 304 302 300 298 296 294 294 295 295 295 296 296 295 294 293 292 290 287 284 280 277 276 276 276 275 273 272 270 269 268 268 268 267 267 266 265 263 262 262 262 262 263 263 263 263 262 260
315 317 319 320 320 319 319 319 318 318 317 316 315 314 313 312 310 308 307 306 306 305 304 302 299 298 297 296 296 297 298 298 297 296 295 293 291 289 288 286 283 280 277 277 277 276 275 274 273 272 270 268 268 267 267 266 266 264 263 261 260 259 259 259 260 260 260 261 261
317 319 320 320 320 319 319 319 318 318 317 315 314 313 311 310 308 307 307 306 306 306 305 303 301 300 299 298 298 299 298 298 296 295 293 291 290 288 286 284 282 280 279 279 278 278 277 276 275 273 272 270 268 267 266 265 265 264 263 261 259 258 257 256 256 256 256 257 257
318 320 320 319 318 318 317 317 317 316 315 314 313 312 310 309 308 307 307 307 306 305 304 303 302 300 298 297 298 298 298 297 295 294 293 291 290 288 287 285 284 282 281 281 280 279 278 277 276 274 273 271 269 267 266 265 264 264 262 261 259 258 257 257 256 255 255 254 254
319 319 319 317 316 316 315 316 316 315 314 313 312 311 309 308 308 307 307 307 306 305 304 302 300 298 297 297 298 297 297 297 296 295 293 291 290 289 287 286 285 284 283 283 282 281 280 279 277 276 274 272 269 267 264 263 263 262 261 259 258 258 257 257 256 255 254 253 253
319 318 317 315 314 314 314 315 315 314 313 312 310 309 308 308 307 307 307 307 306 305 304 303 301 300 299 300 300 299 299 298 297 295 293 292 290 289 289 288 287 286 285 284 283 282 281 280 278 277 275 273 270 267 264 263 262 261 260 259 258 257 256 255 255 254 253 252 252
318 316 315 313 313 313 314 314 314 313 312 310 309 309 308 308 308 308 308 307 306 305 304 303 302 302 302 302 302 301 299 297 296 294 293 292 291 290 289 288 287 286 286 285 284 284 282 281 280 278 276 274 271 268 264 261 260 259 258 258 257 256 255 254 254 253 252 251 251
316 314 313 312 312 312 313 313 313 312 311 309 309 309 309 309 309 309 308 307 306 304 303 302 302 301 301 301 300 299 298 296 295 294 293 292 291 290 289 289 287 286 286 286 285 285 284 283 281 279 277 275 272 268 263 261 259 258 257 256 256 255 253 252 251 251 251 250 249
315 314 312 312 311 312 312 313 313 312 311 310 310 310 310 310 309 308 307 307 305 304 302 301 302 301 301 300 298 297 296 295 294 293 293 292 292 291 289 288 287 287 287 287 286 286 285 284 283 281 279 276 272 267 262 261 259 258 256 256 255 254 252 251 250 249 249 248 247
315 313 311 310 310 310 312 313 313 312 312 311 311 311 310 310 308 307 307 306 305 304 303 303 304 303 302 301 299 297 296 295 294 294 293 293 292 291 290 289 288 288 288 288 287 287 286 285 284 283 281 278 272 266 262 260 259 257 256 255 254 253 252 250 249 248 247 246 245
314 312 310 308 308 310 312 313 313 313 312 312 311 310 310 309 308 307 307 307 306 305 305 305 305 304 303 302 300 298 297 296 295 294 294 293 292 291 290 290 289 289 289 289 288 288 287 286 285 284 283 280 274 267 263 260 258 256 255 255 254 253 251 250 248 247 245 244 243
314 312 309 308 308 310 311 312 313 312 312 311 310 310 309 309 308 307 308 308 307 306 305 305 304 303 302 301 299 298 297 296 295 295 294 293 292 291 290 290 289 289 289 289 288 288 287 287 286 286 285 282 276 270 264 259 257 255 254 254 253 251 249 247 246 245 243 242 240
313 311 310 308 308 309 310 311 311 311 310 310 309 309 309 309 307 307 307 307 306 305 304 303 302 302 301 301 300 298 297 296 296 295 294 292 291 290 290 289 289 289 288 288 288 288 287 287 286 286 285 283 278 272 264 259 256 254 254 253 253 251 249 246 244 243 242 241 239
311 310 309 308 308 308 309 310 310 310 310 309 309 309 309 309 307 307 306 305 305 304 303 301 301 301 301 301 300 299 298 297 296 295 294 292 291 290 289 289 288 288 288 288 288 287 287 286 286 286 286 284 279 273 266 259 255 253 253 252 252 250 249 246 243 242 241 240 239
309 309 308 308 308 308 309 309 309 309 309 309 308 308 307 307 306 306 306 305 305 304 303 301 301 301 302 301 300 299 297 297 297 296 295 293 292 290 289 288 287 287 287 287 287 287 287 287 287 288 288 286 284 280 273 266 260 256 254 253 251 250 249 247 244 241 239 238 237